Location: Kalberh�ni
(46.4610°N, 7.2453°E)
Time: 02:22:30
(UTC+00:00)

Cosmos 1340 - Pass Details

Date: 20 June 2021
Orbit: 499 x 504 km, 81.2° (Epoch: 25 July)

Event Time Altitude Azimuth Distance (km) Brightness Sun altitude
Exits shadow 21:07:04 11° 193° (SSW) 1,660 4.9 -12.7°
Maximum altitude 21:10:43 82° 281° (W) 516 2.7 -13.1°
Drops below altitude 10° 21:14:30 10° 9° (N) 1,727 6.1 -13.4°
Sets 21:16:39 0° 11° (N) 2,617 7.1 -13.6°
